Regional Weather Roundup
Issued by NWS

Home | Current Version | Previous Version | Graphics & Text | Print | Product List | Glossary On
Versions: 1 2 3 4 5 6 7 8 9 10 11 12 13 14 15 16 17 18 19 20 21 22 23 24 25 26 27
000
ASUS45 KBOU 271907
RWRCO

WEATHER ROUNDUP FOR COLORADO
NATIONAL WEATHER SERVICE DENVER/BOULDER CO
1200 PM MST MON FEB 27 2017

NOTE: "FAIR" INDICATES FEW OR NO CLOUDS BELOW 12000 FEET WITH NO
SIGNIFICANT WEATHER AND/OR OBSTRUCTIONS TO VISIBILITY.

COZ001>005-013-030-031-272000-
...NORTHWEST COLORADO...

CITY           SKY/WX    TMP DP  RH WIND       PRES   REMARKS
CRAIG          PTSUNNY   38  22  52 SW26G40   29.60S
HAYDEN         FAIR      37  18  44 SW18G29   29.59S
MEEKER         CLOUDY    39  25  57 S22G31    29.63R
MOUNT WERNER   NOT AVBL
STEAMBOAT SPGS CLOUDY    32  17  52 CALM      29.59F
WALDEN         NOT AVBL
$$

COZ006>008-011-272000-
...WEST CENTRAL VALLEYS...

CITY           SKY/WX    TMP DP  RH WIND       PRES   REMARKS
GRAND JUNCTION CLOUDY    46  24  42 SW22G29   29.70F
MONTROSE       FAIR      46  19  34 SW25G41   29.72F
EAGLE          PTSUNNY   39  18  41 W21G26    29.68F
RIFLE          CLOUDY    43  22  43 SW21G37   29.69S
DELTA          PTSUNNY   47  26  43 SW13G24   29.76F
NUCLA          FAIR      41  25  52 SW21G32   29.80F
$$

COZ017>023-064>068-272000-
...SOUTHWEST COLORADO...

CITY           SKY/WX    TMP DP  RH WIND       PRES   REMARKS
DURANGO        CLOUDY    38  22  52 S7        29.88F
CORTEZ         CLOUDY    44  23  43 S16G25    29.85F
PAGOSA SPRINGS LGT SNOW  32  29  88 SW9       29.88F WCI  24
TELLURIDE      FAIR      31  13  47 S14G23    29.78S WCI  21
WOLF CREEK PAS CLOUDY    12  12 100 S33G48    29.79R WCI -10
$$

COZ009-010-012-014-032>034-037-058>063-272000-
...CENTRAL COLORADO...

CITY           SKY/WX    TMP DP  RH WIND       PRES   REMARKS
ASPEN          PTSUNNY   34  13  41 S10       29.66F WCI  26
BUENA VISTA    CLOUDY    40   4  22 S10G18    29.67S
COPPER MTN     NOT AVBL
BERTHOUD PASS  CLOUDY    12   1  62 W9G32     29.62S WCI   0
COTTONWOOD PAS PTSUNNY   32   3  29 S14G26    29.68R WCI  22
GUNNISON       FAIR      17   5  59 E6        29.80R WCI   9
KREMMLING      PTSUNNY   43  18  36 SW22G40   29.63F
LEADVILLE      PTSUNNY   24   3  40 S15G21    29.65F WCI  11
MONARCH PASS   CLOUDY    18   9  68 SW32G39   29.79R WCI  -3
SALIDA         FAIR      42   8  24 SW9G17    29.76F
SUNLIGHT       NOT AVBL
WILKERSON PASS FAIR      27   7  43 SW16G29   29.67S WCI  14
$$

COZ069>075-272000-
...SAN LUIS VALLEY/SANGRE DE CRISTO MOUNTAINS...

CITY           SKY/WX    TMP DP  RH WIND       PRES   REMARKS
ALAMOSA        FAIR      42  15  33 SW28G36   29.79S
LA VETA PASS   FAIR      28  16  59 S31G51    29.75S WCI  12
SAGUACHE       FAIR      41  12  30 W13G20    29.73F
$$

COZ035-036-038>040-272000-
...NORTHERN COLORADO FRONT RANGE...

CITY           SKY/WX    TMP DP  RH WIND       PRES   REMARKS
DENVER INTL AP FAIR      53   8  16 S20       29.56F
DMNS CITY PARK   N/A     53   4  14 S9G22     29.55F
AURORA         MOSUNNY   52   7  16 SW24G30   29.56F
FRONT RANGE AP NOT AVBL
ERIE MUNI ARPT FAIR      45  15  29 NE6       29.58F
BOULDER MUN AP FAIR      43  16  33 N3        29.58F
CENTENNIAL     FAIR      50   8  18 SW13      29.58F
BROOMFIELD     MOSUNNY   46  16  29 N8        29.58F
FORT COLLINS   FAIR      44  14  29 S8        29.60F
LONGMONT       NOT AVBL
$$

COZ041-046-047-076>085-087-088-272000-
...PIKES PEAK/PALMER DIVIDE AND SOUTHERN FOOTHILLS...

CITY           SKY/WX    TMP DP  RH WIND       PRES   REMARKS
COLO. SPRINGS  FAIR      52   8  17 SW24G33   29.64F
A. F. ACADEMY  FAIR      50   5  16 S22G29    29.61F
SCHRIEVER AFB  FAIR      46   5  18 S23G40    29.65F
ELLICOTT       FAIR       1  32 100 SW21G36   29.63  WCI -21
FALCON         FAIR      46   5  18 S22G35    29.64F
FORT CARSON    FAIR      51   9  18 S26G35    29.63F
LIMON          FAIR      64   8  11 S17G26    29.64F
MONUMENT HILL  FAIR      41  10  28 S23G31    29.62F
TRINIDAD       FAIR      57   6  13 SW30G43   29.70F
$$

COZ042>045-048>051-090-091-272000-
...NORTHEAST COLORADO...

CITY           SKY/WX    TMP DP  RH WIND       PRES   REMARKS
GREELEY ARPT   FAIR      44  18  35 E6        29.61F
AKRON          FAIR      51   6  16 S13G18    29.63F
BURLINGTON     FAIR      55   9  16 SW14G24   29.68F
WRAY           NOT AVBL
STERLING       FAIR      45  25  45 CALM      29.62F
HOLYOKE        FAIR      54  27  35 S9G16     29.66F
FORT MORGAN    FAIR      53   9  17 S15       29.61F
$$

COZ086-089-092>099-272000-
...SOUTHEAST COLORADO...

CITY           SKY/WX    TMP DP  RH WIND       PRES   REMARKS
PUEBLO         FAIR      53  11  18 SW3       29.65F
LA JUNTA       FAIR      60  11  14 SW18G25   29.67F
LAMAR          FAIR      58   9  14 MISG      29.68F
SPRINGFIELD      N/A     58  14  17 SW15G21   29.71F
$$




USA.gov is the U.S. government's official web portal to all federal, state and local government web resources and services.